Wind_Speed
4 6 8 9 11 12 14 15 15 16 16 16 16 15 15 15 15 16 16 16 16 16 16 16 16 16 16 16 16 16 16 16 16 16 15 16 16 16 16 16 16 17 17 18 18 18 18 18 18 18 19 18 18 18 18 18 18 18 18 19 19 19 19 20 21 21 21 21 22
6 8 9 11 12 14 15 15 15 15 14 14 13 13 13 14 14 15 15 14 14 14 14 14 14 14 14 15 15 15 14 14 14 14 14 14 15 15 16 17 17 18 19 19 19 19 19 19 19 19 19 19 19 19 19 18 18 18 19 20 20 20 20 20 21 22 22 22 22
8 10 11 12 13 14 14 14 13 12 12 11 11 11 12 12 13 13 12 12 12 12 12 12 13 13 13 14 14 13 13 13 13 14 15 16 16 17 18 19 20 21 21 21 21 21 21 21 21 20 19 18 17 18 18 18 18 19 20 20 20 20 20 20 21 21 22 22 22
9 11 12 12 13 12 12 12 11 11 11 11 10 10 10 11 11 10 10 11 11 11 11 12 12 13 13 13 13 14 15 15 16 17 18 19 20 20 20 21 22 22 22 22 22 22 22 21 21 20 19 17 17 17 17 17 17 18 19 20 20 20 21 21 21 21 21 21 21
10 11 11 11 11 11 11 10 10 11 11 11 10 9 9 9 10 10 10 10 11 12 12 13 13 13 13 14 15 16 17 18 19 19 20 21 21 21 20 20 21 21 21 21 22 22 21 21 21 20 19 18 17 17 17 17 17 18 19 20 21 21 21 20 20 19 19 20 20
10 10 10 10 9 9 9 9 10 10 10 10 9 9 8 8 9 9 10 10 11 12 13 13 13 14 15 16 18 19 19 20 20 21 21 21 21 20 20 19 19 20 21 21 22 22 22 21 21 21 19 18 17 17 17 17 18 20 21 22 22 21 20 20 20 20 19 20 20
9 8 8 8 8 8 8 9 9 8 8 7 7 7 8 8 9 10 11 11 12 12 12 13 13 14 16 17 18 19 20 20 21 21 21 21 20 20 19 18 18 19 19 20 21 21 22 22 22 21 19 18 18 18 18 18 19 20 20 20 19 19 19 20 21 20 20 20 21
7 7 7 7 7 7 7 7 7 6 6 6 6 7 8 9 10 11 11 12 13 13 13 13 14 15 16 17 18 18 19 19 19 19 19 18 18 18 17 16 16 17 17 18 18 19 19 19 19 18 18 17 17 17 17 17 18 19 19 18 16 15 15 16 16 17 18 19 20
5 5 5 5 5 5 5 5 5 5 5 6 7 7 9 10 11 12 13 14 14 14 14 15 15 16 16 16 17 17 17 16 16 16 15 15 15 15 15 15 15 16 17 17 17 17 17 18 18 18 19 19 19 19 19 19 19 20 21 21 20 20 19 18 17 17 18 18 19
4 4 4 4 3 3 4 4 5 5 6 7 8 9 10 10 11 12 13 13 14 14 14 14 14 14 15 14 14 14 13 13 13 13 14 14 15 16 17 18 19 19 20 21 21 21 21 21 21 21 22 22 22 22 23 22 22 23 23 22 22 22 22 21 21 20 20 20 21
3 3 3 3 3 4 4 5 6 7 7 9 9 10 10 10 11 11 12 12 13 13 13 12 12 12 13 13 13 13 15 16 18 19 20 21 22 23 23 23 23 23 24 23 23 23 23 23 23 24 24 24 24 24 24 24 24 24 24 24 23 23 23 23 22 21 21 22 22
3 3 3 3 4 5 5 6 7 8 9 10 10 11 11 10 10 11 11 12 12 12 11 11 11 12 14 15 17 18 20 21 21 22 22 22 23 23 23 23 23 23 22 22 22 22 22 22 22 23 23 23 23 23 23 23 23 23 24 24 24 23 23 23 23 22 22 21 22
3 3 4 4 5 5 6 7 8 9 10 10 11 11 11 11 11 11 11 11 11 12 12 13 15 17 19 20 21 21 21 21 21 21 21 21 21 21 21 21 21 21 20 20 20 20 20 20 21 21 22 22 22 22 22 22 22 22 23 23 23 23 23 23 22 22 22 22 22
3 4 4 5 6 7 7 8 9 9 10 11 11 12 12 12 11 11 11 12 13 15 17 19 20 21 21 21 21 20 20 20 20 20 20 20 20 20 20 19 19 19 19 19 19 19 20 20 21 21 22 22 22 22 22 22 23 23 23 23 23 23 23 23 22 22 22 22 22
4 4 5 6 7 8 8 9 9 10 10 11 11 12 12 12 12 12 13 15 17 19 20 20 20 20 19 19 18 18 19 19 19 19 20 20 20 19 19 19 19 20 20 20 20 20 21 21 21 22 22 23 23 23 23 23 23 23 24 24 24 24 23 23 23 22 22 22 23
5 6 7 7 8 9 9 10 10 10 10 11 11 12 12 13 13 14 16 17 18 18 18 18 18 17 17 17 17 18 18 19 19 19 20 20 20 20 20 20 20 20 21 21 21 21 22 22 22 23 23 23 24 24 24 24 24 24 24 24 24 24 24 24 24 23 23 23 23
6 7 8 8 9 10 10 11 11 10 11 11 12 12 13 14 15 15 15 16 16 17 17 16 16 17 17 18 18 18 18 19 19 19 19 20 20 20 20 21 21 21 21 22 22 22 22 23 23 23 23 24 24 24 24 25 25 25 25 25 25 25 25 25 24 24 24 24 25
7 8 9 9 10 11 11 11 11 11 11 12 13 13 14 14 15 15 16 15 16 16 17 17 17 18 18 18 18 18 18 19 19 19 19 20 20 21 21 22 22 22 22 22 22 23 23 23 23 23 24 24 24 24 25 25 25 25 25 25 25 26 26 25 25 25 25 25 26
9 9 10 11 11 12 12 12 12 12 12 12 13 14 14 15 15 16 16 16 16 16 17 18 18 18 18 18 19 19 19 19 19 20 20 20 21 21 22 22 22 22 22 22 23 23 23 23 23 23 23 23 24 24 24 24 25 25 25 25 26 26 26 26 26 26 26 27 27
9 10 11 11 12 12 12 12 12 12 12 13 13 14 14 15 15 16 16 16 17 17 17 18 18 19 19 19 19 20 20 20 20 20 20 21 21 21 21 22 22 22 22 22 22 23 23 23 23 23 23 23 23 23 24 24 24 25 25 25 26 26 26 27 27 27 28 28 28
10 11 11 11 12 12 12 12 12 12 12 13 13 14 15 15 15 16 16 17 17 17 18 18 18 19 19 20 20 20 20 20 20 20 20 20 20 21 21 21 22 22 22 22 22 22 22 22 22 22 23 23 23 23 23 23 24 24 25 26 26 27 27 28 28 29 29 29 29
10 11 11 11 11 11 12 11 12 12 12 13 13 14 15 15 16 16 16 17 17 18 18 18 18 19 19 20 20 20 20 20 19 19 19 20 20 20 20 20 21 21 21 21 21 21 21 21 22 22 23 23 23 23 23 23 24 25 26 26 26 27 27 27 27 27 28 28 28
10 10 10 10 11 11 11 11 12 12 12 13 14 15 15 16 16 17 17 17 18 18 18 18 18 19 19 19 19 19 20 20 19 19 19 19 19 20 20 20 20 20 21 21 21 21 20 21 21 22 23 23 24 24 24 24 25 24 24 23 22 21 21 21 21 21 22 23 24
9 10 10 10 11 11 11 11 12 12 13 13 14 15 16 16 17 17 17 18 18 18 18 18 18 19 19 19 19 19 19 19 19 19 19 19 19 19 19 20 20 20 20 20 19 19 19 20 20 20 20 20 19 18 18 18 18 18 18 18 18 18 19 20 21 22 22 22 22
9 10 10 10 11 11 11 11 12 13 13 14 15 15 16 16 17 18 18 18 18 18 18 18 18 19 19 18 18 18 18 18 18 19 19 19 19 19 19 19 19 18 18 18 17 17 18 19 19 19 18 18 18 18 19 20 21 21 21 21 21 21 21 22 22 23 23 23 24
9 10 10 10 11 11 11 12 12 13 14 14 15 15 16 16 17 17 18 18 18 18 18 18 18 18 18 18 18 17 17 17 18 18 18 19 18 18 18 18 18 17 17 16 16 17 17 18 19 19 20 20 20 20 20 21 21 22 22 22 22 22 22 22 22 22 23 23 24
10 10 10 10 10 11 11 12 13 13 14 14 15 16 16 17 17 17 17 17 17 17 17 18 18 18 17 17 17 17 17 18 17 18 18 18 18 18 18 17 17 16 16 16 16 17 18 19 20 21 21 21 21 21 20 20 21 21 21 22 22 23 23 24 24 23 23 24 24
10 10 10 10 10 11 11 12 13 14 14 15 15 16 16 17 16 16 16 16 17 17 17 17 17 17 17 16 17 17 18 18 18 18 17 17 17 17 17 17 17 17 17 17 18 19 20 21 21 21 21 21 21 21 20 20 20 20 20 21 21 22 23 23 24 24 24 24 25
10 10 10 10 10 11 12 13 13 14 14 15 15 16 16 16 16 16 16 16 17 17 17 17 17 17 17 17 17 18 18 18 18 17 17 17 17 17 17 17 18 18 19 19 20 20 21 21 20 20 20 20 20 20 21 20 20 20 20 21 21 22 23 23 24 24 25 25 26
10 10 10 10 10 11 12 13 13 14 14 15 15 16 16 15 15 15 16 16 17 17 17 17 17 17 17 18 18 18 18 17 17 17 17 17 17 17 18 18 18 19 19 19 20 20 20 19 19 19 19 19 20 21 21 21 21 21 21 22 22 23 24 24 25 26 27 27 27
10 10 10 10 11 11 12 13 13 14 15 15 15 15 15 15 15 15 16 16 17 17 18 17 17 17 18 18 18 18 17 17 17 17 17 17 18 18 18 18 19 19 19 19 19 19 18 18 19 19 19 20 21 21 22 22 22 22 23 23 24 25 25 26 26 27 28 28 28
9 10 10 10 11 12 13 13 14 14 15 15 15 15 15 15 15 16 16 17 17 18 18 18 18 18 18 19 18 18 18 18 17 18 18 18 18 18 19 19 19 19 19 18 18 18 18 19 19 19 20 20 21 22 22 23 23 23 24 24 25 26 26 26 27 28 29 29 30
9 10 10 10 11 12 13 13 14 14 14 14 14 15 15 16 16 17 17 18 18 18 18 18 19 19 19 19 19 19 18 18 18 18 18 18 19 19 19 19 18 18 18 18 18 18 19 19 19 20 20 20 21 21 22 22 23 23 23 24 24 25 26 27 28 29 30 31 31
9 10 10 11 12 12 13 13 14 14 14 14 14 15 16 16 17 17 18 18 18 18 19 19 19 19 19 19 19 19 19 19 19 19 19 19 19 19 19 19 19 18 18 18 18 19 19 19 19 19 20 20 21 21 22 22 23 23 23 24 25 26 27 28 29 30 31 32 32
10 10 11 11 12 12 13 13 14 14 14 14 15 15 16 17 17 17 18 19 19 19 19 20 20 20 20 20 20 20 20 20 20 20 20 19 19 19 19 19 19 19 18 18 18 19 19 19 19 19 20 20 21 21 22 22 22 22 23 24 25 26 27 28 29 31 32 32 32
10 10 11 11 12 12 12 13 14 14 14 14 15 16 17 17 17 17 18 19 19 19 20 20 20 20 21 21 21 20 20 20 20 20 20 20 19 19 19 19 20 19 19 19 19 19 19 19 19 19 20 21 21 21 21 21 21 22 23 24 25 26 27 28 29 30 30 31 31
11 11 11 11 11 12 12 13 13 14 14 15 15 16 17 17 17 18 18 19 19 19 20 20 21 21 21 22 21 21 21 21 20 20 20 20 19 19 19 19 20 20 20 20 19 19 19 19 19 20 20 21 22 21 21 21 21 21 22 23 24 25 26 27 27 28 29 29 29
12 12 12 11 11 12 12 13 13 13 14 15 16 17 17 17 17 18 19 19 19 20 20 21 21 21 22 22 22 21 21 21 20 20 20 20 20 19 19 19 20 20 20 21 20 20 20 20 20 20 21 21 22 21 20 20 20 20 21 21 22 23 24 25 25 26 26 27 27
12 13 13 12 12 12 12 13 13 13 14 15 16 17 17 18 18 19 19 19 20 20 20 21 22 22 23 22 21 21 21 21 21 21 21 21 20 20 19 19 20 20 21 21 21 21 20 20 20 20 21 21 21 20 19 19 19 19 20 20 21 22 23 23 23 24 24 25 25
13 13 13 13 13 13 13 13 13 14 14 15 16 17 17 18 19 19 20 20 21 21 21 21 22 23 23 22 21 20 21 22 22 22 22 21 21 20 19 19 20 21 22 22 21 21 21 20 21 20 20 21 21 20 19 18 18 18 19 19 20 21 22 22 22 22 23 23 23
13 13 13 13 14 14 14 14 14 14 15 16 16 17 17 18 19 20 21 21 22 22 22 21 22 23 23 21 20 20 20 21 22 22 22 22 21 21 20 20 21 22 22 22 22 21 21 21 21 21 20 20 20 19 18 17 17 17 18 19 20 20 21 22 22 22 22 22 22
Wind_Direction
295 300 301 302 301 300 299 298 296 294 292 290 290 289 288 287 287 286 287 287 287 288 288 288 288 288 287 286 285 285 285 285 285 284 282 281 281 281 281 281 281 281 281 281 281 279 276 274 272 272 273 274 275 275 273 271 269 267 265 263 262 262 263 263 262 261 260 259 256
307 306 305 305 303 301 299 297 295 293 292 290 289 288 287 287 286 287 288 288 288 289 289 290 289 289 289 289 289 290 291 290 289 287 285 282 282 281 282 282 282 282 281 281 281 280 278 276 275 275 275 274 274 273 271 269 267 265 264 262 262 263 264 263 263 262 261 260 258
310 308 306 305 303 302 300 298 295 292 290 288 287 286 285 284 285 286 287 287 287 287 286 286 287 287 287 288 289 288 287 285 284 282 280 279 279 280 280 281 282 281 281 280 280 279 277 277 275 274 273 272 271 270 269 268 266 264 263 263 263 264 263 262 262 261 260 258 257
308 307 306 305 304 302 298 294 291 288 285 284 283 282 281 280 280 281 282 283 282 281 281 281 283 284 284 284 282 279 276 274 274 275 276 277 278 279 281 282 283 284 284 283 281 280 278 277 274 271 268 267 267 267 268 268 266 265 264 264 264 263 261 260 260 258 256 255 254
308 306 305 303 301 297 293 288 285 283 282 282 282 282 280 278 278 279 280 282 282 281 282 282 283 282 281 280 279 278 277 277 277 278 280 281 283 284 286 287 289 290 289 287 285 283 280 277 273 269 266 265 266 267 267 268 269 268 267 265 263 261 259 258 257 255 254 253 252
308 306 304 300 295 290 285 281 280 281 283 284 283 282 281 280 280 281 283 283 284 285 286 285 283 281 280 280 282 283 285 287 288 288 288 288 288 289 290 292 293 294 293 291 288 285 281 277 271 267 264 264 264 265 265 267 269 269 267 263 260 258 256 255 254 253 252 252 252
306 303 299 293 287 281 277 276 278 282 287 287 285 283 282 282 282 283 284 286 287 287 286 285 282 281 281 283 285 288 290 292 293 293 291 290 289 288 288 289 291 292 292 290 287 283 278 272 266 262 259 259 261 263 265 267 269 270 269 265 259 255 252 251 251 250 249 249 250
302 297 291 286 281 278 277 279 283 288 290 288 285 285 286 287 288 289 290 291 290 288 287 285 285 287 290 292 294 295 296 296 295 293 291 289 288 286 286 286 287 288 289 288 285 280 275 269 264 261 261 262 263 264 265 266 266 268 270 272 270 266 263 260 257 254 251 250 250
297 294 292 289 286 286 290 296 298 298 295 293 294 294 296 298 300 301 301 300 299 298 296 293 295 298 301 301 300 300 299 296 294 292 291 291 290 289 288 287 287 287 286 285 282 279 276 273 271 270 270 269 268 267 266 266 265 265 267 270 273 275 276 275 272 269 265 261 259
296 301 305 306 309 314 319 321 317 310 306 307 309 309 310 312 312 313 312 312 311 308 306 304 305 304 303 301 299 297 296 294 294 295 296 295 294 292 291 290 288 287 285 283 281 279 277 275 272 271 269 268 267 267 267 267 266 265 264 264 266 268 270 270 270 269 268 266 264
315 326 331 331 333 333 331 328 324 321 319 320 321 322 323 323 322 322 322 320 316 313 311 310 308 303 300 298 297 296 295 295 296 296 295 294 293 292 291 289 288 286 284 282 280 279 276 274 271 270 269 267 266 266 266 266 265 264 263 262 262 263 264 264 264 264 263 263 262
343 346 345 340 337 335 333 332 331 329 328 327 328 330 331 330 329 328 326 322 317 314 312 309 304 300 298 298 297 297 297 296 296 295 294 293 292 291 290 289 287 285 283 282 280 278 275 273 271 270 269 268 266 265 265 264 263 262 261 260 260 259 260 260 260 260 260 259 258
355 349 345 343 342 341 340 339 338 335 332 330 331 333 333 333 332 330 325 319 315 310 306 302 300 298 298 298 298 298 298 297 295 293 292 291 290 289 288 287 285 284 283 281 280 277 274 272 271 270 269 268 266 265 264 263 262 261 260 260 259 258 258 258 258 258 258 257 256
358 352 350 350 350 348 347 346 343 339 334 331 331 332 332 330 329 323 316 309 305 302 300 299 299 300 300 300 300 300 299 297 295 293 292 291 290 289 288 286 285 284 283 282 280 278 275 273 271 270 269 269 267 266 265 264 263 262 261 261 260 259 258 258 258 258 257 256 255
3 0 359 358 356 353 351 349 346 341 336 333 331 330 328 323 317 308 302 299 298 299 300 301 302 303 303 304 303 301 299 297 295 294 293 292 290 289 288 287 286 285 284 283 282 279 277 274 272 271 270 269 268 267 265 264 263 262 261 261 260 259 259 258 257 256 255 254 254
11 9 7 4 359 355 353 351 348 343 337 333 329 325 319 312 305 302 301 303 304 305 307 307 306 306 306 306 304 301 299 297 296 294 293 292 291 290 289 288 288 287 286 284 282 280 278 276 274 271 270 268 268 267 265 264 263 262 260 259 259 258 257 256 255 254 253 252 251
16 13 9 5 359 355 353 351 347 341 335 329 323 318 313 310 310 312 314 315 315 313 312 310 308 307 306 305 303 301 299 298 296 295 293 292 292 291 290 290 289 288 287 285 283 281 279 277 276 273 271 269 268 267 265 264 263 262 260 259 257 257 256 255 254 253 252 251 250
15 11 7 1 356 353 351 349 344 337 331 325 320 318 319 321 323 323 322 320 317 314 312 310 309 308 306 304 303 302 300 299 297 295 294 293 293 292 291 290 290 289 287 286 283 281 280 279 277 275 273 271 269 267 266 265 264 262 261 260 259 257 256 255 253 252 251 250 249
12 6 1 357 353 350 348 345 340 334 329 326 324 324 326 327 326 323 321 318 316 314 313 311 310 309 308 306 304 303 302 300 299 297 296 295 295 294 293 291 290 289 287 285 283 282 281 280 279 277 275 272 270 269 267 265 264 263 261 260 259 258 257 255 254 252 251 251 250
9 3 359 355 352 349 346 342 337 333 330 329 327 326 326 326 324 322 320 318 318 317 315 313 311 310 309 307 306 305 304 303 301 299 298 298 297 296 294 293 292 290 288 285 284 282 282 281 279 278 276 274 272 270 268 267 265 264 262 261 260 259 258 256 255 253 252 251 250
7 2 358 354 351 347 344 339 336 334 332 330 327 326 326 325 324 322 321 320 320 319 317 314 312 311 309 308 307 306 305 305 302 301 300 300 299 297 296 295 293 291 289 287 285 284 283 282 281 280 278 275 273 271 270 269 267 266 264 262 261 259 258 257 255 253 252 251 249
5 1 356 353 349 345 342 339 337 335 332 330 328 328 328 327 325 323 322 322 321 320 318 315 313 311 310 309 308 307 306 306 304 302 301 301 299 298 298 296 294 292 290 288 287 286 284 283 282 281 280 277 274 272 270 269 267 265 264 263 261 260 259 257 255 254 253 251 250
4 359 355 351 348 344 341 339 337 335 334 332 330 331 331 330 327 326 325 324 322 320 318 316 314 312 311 309 308 307 307 306 305 303 302 301 300 299 299 298 296 293 291 289 288 287 285 284 283 282 279 276 272 268 266 265 264 263 263 264 264 263 262 262 262 261 260 258 255
3 359 354 349 345 342 339 338 336 335 335 334 333 333 333 331 330 328 326 324 323 320 318 317 315 313 312 310 309 308 307 306 305 304 303 303 302 301 301 300 297 294 293 292 290 289 287 285 284 283 281 278 274 272 272 273 275 277 279 279 279 278 276 275 274 273 271 267 263
2 358 353 348 344 341 339 338 337 336 336 335 335 335 334 332 331 329 326 324 322 321 320 318 316 315 313 312 310 309 308 307 306 305 305 305 305 304 303 302 300 297 296 295 294 293 292 291 290 290 291 291 291 291 291 292 292 292 291 289 287 284 281 278 276 273 270 268 265
2 358 353 348 344 342 340 340 340 339 338 338 337 336 334 332 331 329 327 324 324 323 322 320 318 317 315 313 312 311 310 309 308 308 308 307 307 307 306 304 302 300 299 298 298 298 297 296 295 296 297 298 298 297 295 292 290 288 286 285 283 281 279 277 275 272 270 268 266
3 358 353 349 345 343 342 343 343 343 342 341 340 338 335 333 331 329 327 327 327 326 324 323 321 319 317 316 315 313 313 313 312 311 310 310 309 309 308 306 305 303 302 301 300 299 298 296 295 295 296 297 297 295 293 290 288 286 284 281 279 278 277 275 274 273 271 268 266
3 358 353 349 347 346 346 347 348 347 346 344 342 339 336 334 332 332 331 330 330 329 327 325 324 323 321 319 317 316 316 315 315 314 313 312 311 311 310 309 307 305 303 302 300 299 298 297 296 296 296 296 295 294 292 290 288 286 283 280 278 276 275 274 273 272 271 269 268
4 359 354 351 350 349 351 352 352 350 348 346 343 340 338 336 336 336 335 334 333 332 330 328 327 326 323 321 320 319 319 318 317 317 316 314 313 312 311 310 308 306 304 303 302 302 301 300 299 298 297 296 295 294 292 290 288 286 283 280 277 276 274 273 272 271 271 269 268
5 1 357 354 354 354 356 356 355 353 350 348 345 343 341 340 340 340 339 338 336 335 333 331 329 327 325 323 322 322 321 320 319 318 317 316 314 313 311 310 309 307 307 306 305 304 303 301 300 299 298 296 295 294 292 290 287 285 282 280 277 275 274 273 272 271 270 269 268
6 2 359 358 359 360 0 359 357 355 353 351 348 346 345 344 343 343 342 341 339 337 335 333 331 328 327 326 325 324 322 321 320 319 318 316 314 313 312 311 310 309 308 307 306 304 303 301 300 298 297 296 295 294 292 290 287 284 282 279 277 276 274 273 272 270 269 268 267
7 4 3 3 4 5 4 2 359 357 356 354 352 350 348 346 346 346 346 345 342 340 337 335 332 330 329 329 328 326 324 322 321 320 319 317 316 314 313 312 310 309 309 308 306 305 303 302 301 299 298 297 296 295 293 291 288 285 282 280 278 276 275 273 272 271 269 268 266
8 7 7 8 9 8 7 4 2 0 359 357 355 352 350 349 349 350 349 348 345 341 338 335 333 331 330 329 328 326 325 324 323 322 321 320 318 317 315 313 311 311 311 310 308 307 305 304 303 302 301 300 300 298 296 293 290 287 285 282 280 279 277 274 273 271 270 269 267
12 12 13 13 13 11 9 6 5 3 1 358 355 353 352 352 352 352 351 349 346 343 339 337 334 332 331 330 328 327 326 326 325 324 324 323 321 319 317 315 314 315 315 313 311 310 308 307 307 306 306 305 304 302 299 295 293 290 287 285 283 282 280 277 275 273 271 270 268
17 18 18 18 16 14 11 9 7 6 2 358 355 354 355 355 354 353 351 349 347 344 341 339 337 334 333 332 331 330 328 327 327 327 326 325 324 322 319 318 318 319 319 317 315 314 313 313 312 312 311 311 309 306 302 298 295 291 289 287 285 284 282 280 278 276 274 272 269
22 23 22 21 19 16 13 10 9 6 2 359 356 355 355 356 355 354 352 350 348 345 342 340 338 336 335 333 332 331 330 329 328 328 328 328 326 324 321 321 322 323 324 323 321 320 319 319 318 318 317 315 312 308 305 301 297 294 292 290 288 286 286 284 283 281 279 276 273
28 28 27 25 22 18 14 12 9 6 2 359 357 356 356 356 355 355 354 352 350 347 344 341 339 337 336 334 333 332 332 332 331 330 330 331 329 327 325 324 324 326 328 329 328 327 326 325 324 324 322 318 314 311 307 303 300 297 295 293 291 291 291 291 289 287 285 282 278
34 33 32 29 25 20 16 12 9 5 2 359 358 359 359 358 356 356 356 355 352 348 345 342 340 338 337 336 334 334 335 336 336 335 334 335 334 332 329 326 326 329 332 334 334 333 331 330 329 328 325 321 317 314 311 307 303 300 298 297 297 298 299 299 297 296 293 290 286
39 37 36 33 28 23 18 14 11 7 3 1 360 1 1 360 359 358 358 357 355 351 347 343 341 340 340 339 337 337 338 340 341 341 340 339 339 337 334 330 330 333 337 339 339 337 335 334 333 332 329 326 323 320 316 311 307 304 303 303 304 305 306 307 305 304 302 299 297
43 41 39 36 32 27 22 18 14 10 7 5 3 3 3 2 1 1 1 359 357 354 349 345 343 343 343 342 340 340 341 343 345 346 346 344 343 342 339 337 336 338 341 342 342 340 339 338 337 335 334 332 330 327 324 318 313 310 310 311 312 312 313 313 313 312 310 310 309
45 43 41 38 35 31 27 22 18 15 12 9 7 6 4 4 4 5 4 2 359 356 352 348 346 346 346 346 345 345 345 346 348 349 349 348 347 346 345 343 342 342 343 344 344 343 342 341 340 340 339 338 337 334 331 327 321 318 318 319 320 319 317 317 318 318 318 319 319
Height
746 747 747 747 748 748 749 749 749 748 748 748 747 747 747 747 746 746 746 746 745 744 744 743 743 743 742 742 742 742 741 741 741 741 740 740 740 740 739 739 739 739 739 739 739 739 739 739 739 738 738 738 738 738 738 738 738 738 738 738 738 738 738 738 737 738 738 738 738
746 746 746 747 747 747 748 748 748 747 747 747 746 746 746 745 745 745 744 744 744 743 743 742 742 741 741 741 741 741 740 740 740 739 739 739 739 739 738 738 738 738 738 737 737 737 737 737 737 737 736 736 736 736 736 736 737 737 736 736 736 736 736 736 735 735 736 736 736
745 745 745 746 746 747 747 747 747 746 746 746 745 745 745 745 744 744 744 743 743 742 742 741 741 740 740 740 740 740 739 739 739 739 738 738 737 737 737 737 736 736 736 736 736 735 735 735 735 735 735 735 735 735 734 734 735 735 734 734 734 734 734 734 734 734 734 734 734
744 744 745 745 745 746 746 746 746 745 745 745 744 744 744 744 744 743 743 742 741 741 741 740 740 739 739 739 739 739 739 738 738 737 737 736 736 735 735 735 734 734 734 734 734 734 734 734 734 734 734 733 733 733 733 733 733 733 733 733 733 733 732 732 732 732 732 732 732
743 744 744 744 745 745 745 745 745 744 744 744 744 744 743 743 742 742 741 741 740 740 739 739 739 739 738 738 738 737 737 736 736 736 735 734 734 734 734 733 733 732 732 732 732 732 732 732 732 732 732 732 732 732 731 732 732 731 731 731 731 730 730 730 729 729 730 729 729
743 743 743 744 744 744 744 744 744 744 744 743 743 742 742 742 741 741 740 740 739 739 738 738 738 737 737 737 736 736 735 735 734 734 733 733 732 732 732 731 731 731 730 730 730 730 730 730 730 730 730 730 730 730 730 730 730 730 729 729 728 728 728 728 728 728 728 728 728
742 743 743 743 744 744 744 743 743 743 743 742 742 741 741 740 740 739 739 739 738 738 737 737 737 736 736 735 734 734 734 733 732 732 731 731 731 730 730 730 730 729 729 729 729 729 729 729 729 729 728 728 728 728 728 728 728 728 727 726 726 726 726 726 726 726 726 726 726
742 742 743 743 743 743 742 742 742 742 742 741 741 740 739 739 739 738 738 737 737 736 736 735 735 734 734 734 733 732 732 731 731 730 730 729 729 729 729 729 729 729 728 728 728 728 728 727 727 727 726 726 726 726 726 726 726 726 726 725 725 724 724 724 724 724 724 724 724
742 742 742 742 742 742 742 741 741 741 740 740 739 739 738 738 737 736 736 735 735 734 734 734 733 733 732 732 731 731 730 730 729 729 729 729 728 728 728 728 728 727 727 727 727 727 727 726 726 725 725 725 725 724 724 724 724 724 724 724 723 723 723 723 723 723 723 723 723
742 741 741 741 741 741 741 740 740 740 739 739 738 737 737 736 735 735 734 734 733 733 733 732 732 731 731 731 730 730 730 729 729 729 728 728 727 727 727 726 726 726 725 725 725 725 725 724 724 724 723 723 723 723 722 722 722 722 721 721 721 721 721 721 721 721 721 721 721
741 740 740 740 740 740 740 739 739 738 738 737 736 736 735 734 734 733 733 732 732 732 731 731 731 730 730 730 729 729 728 728 727 727 726 726 725 725 724 724 724 724 723 723 723 723 723 722 721 721 721 721 720 720 720 720 720 719 719 719 719 719 719 719 719 719 719 719 719
740 740 740 739 739 739 739 738 737 737 736 735 734 734 733 733 732 732 732 731 731 731 730 730 730 729 729 728 728 727 727 726 726 725 725 724 724 723 723 722 722 722 721 721 721 721 720 720 719 719 718 718 718 718 718 718 718 717 717 717 717 717 716 716 717 717 717 717 717
739 739 739 739 738 738 737 736 735 735 734 734 733 732 732 732 731 731 731 730 730 730 729 729 728 728 727 726 726 725 725 724 724 723 723 722 722 721 721 720 720 719 719 719 719 719 718 718 717 717 716 716 716 716 715 715 715 715 714 714 714 714 714 714 714 715 715 715 714
738 738 738 737 736 736 735 734 734 733 732 732 731 731 731 730 730 730 730 730 729 728 728 727 727 726 725 725 724 724 723 723 722 721 721 720 720 719 719 718 718 718 717 717 717 717 716 716 715 715 714 714 714 714 714 713 713 713 713 712 712 712 712 712 712 713 713 713 712
737 737 736 735 734 734 733 733 732 731 731 730 730 730 730 730 730 729 729 728 728 727 726 726 725 724 724 723 723 722 721 721 720 720 719 718 718 718 717 717 716 716 715 715 715 714 714 714 713 713 713 712 712 711 711 711 711 711 710 710 710 710 710 710 710 710 710 710 710
736 735 734 733 733 732 731 731 730 730 730 729 729 729 729 729 729 728 728 727 726 725 725 724 723 723 722 721 721 720 720 719 719 718 717 717 716 716 715 715 714 714 714 713 713 712 712 712 711 711 710 710 709 709 709 709 709 708 708 708 708 708 708 708 708 708 708 708 708
734 733 732 731 731 730 730 729 729 729 729 729 729 728 728 728 727 727 726 726 725 724 723 723 722 721 721 720 719 719 718 718 717 716 715 715 714 714 713 713 712 712 712 711 711 710 710 709 709 709 708 708 707 707 707 706 706 706 705 705 705 705 705 705 705 705 705 705 705
731 731 730 730 729 729 729 729 728 728 728 728 728 727 727 727 726 726 725 724 724 723 722 721 721 720 719 719 718 717 717 716 715 714 714 713 713 712 711 711 710 710 710 709 709 708 708 707 707 707 706 706 705 705 704 704 704 704 703 703 703 703 703 703 703 703 703 703 703
730 729 729 729 728 728 728 728 727 727 727 727 727 727 726 726 725 724 724 723 723 722 721 720 719 719 718 717 716 716 715 714 714 713 712 711 711 710 710 709 709 708 708 707 707 706 706 705 705 705 704 704 703 703 702 702 702 701 701 701 700 700 700 700 700 700 700 700 700
728 728 728 728 727 727 727 727 727 727 727 726 726 726 725 725 724 724 723 722 721 721 720 719 718 717 716 716 715 714 714 713 712 711 710 710 709 709 708 708 707 707 706 706 705 704 704 704 703 703 702 702 701 701 700 700 699 699 699 699 698 698 698 698 698 697 697 697 697
727 727 727 727 727 727 726 726 726 726 726 726 726 725 724 724 723 723 722 721 720 719 719 718 717 716 715 714 713 713 712 711 710 710 709 709 708 707 707 706 705 705 704 704 704 703 703 702 702 701 700 700 699 699 699 698 698 697 696 696 695 695 695 694 694 694 694 694 694
727 727 727 726 726 726 726 726 726 726 726 725 725 724 724 723 722 721 721 720 719 718 717 716 715 714 714 713 712 711 710 710 709 709 708 707 707 706 705 705 704 704 703 702 702 701 701 700 700 699 699 698 697 697 696 696 695 694 694 693 693 692 692 692 692 692 692 692 692
727 726 726 726 726 726 726 726 726 725 725 724 724 723 723 722 721 720 719 719 718 717 716 715 714 714 713 712 711 710 709 709 708 707 706 706 705 704 704 704 703 702 701 701 700 699 699 698 698 697 696 695 694 694 693 693 692 692 691 691 691 690 690 690 690 690 690 690 690
726 726 726 726 726 726 725 725 725 725 724 724 723 722 721 721 720 719 718 718 717 716 715 714 714 713 712 711 710 709 708 707 706 706 705 704 704 703 703 702 701 700 700 699 699 698 697 697 696 695 694 694 693 692 692 691 691 690 690 689 689 689 689 688 688 688 688 688 688
726 726 726 726 725 725 725 725 724 724 724 723 722 721 720 720 719 718 717 716 716 715 714 714 713 712 711 710 709 708 707 706 705 704 704 703 703 702 701 700 700 699 699 698 697 697 696 696 695 694 693 693 692 691 690 690 689 689 688 688 687 687 686 686 686 685 685 685 685
726 726 725 725 725 725 725 724 724 724 723 722 721 720 720 719 718 717 717 716 715 714 714 713 712 711 710 709 708 707 706 705 704 704 703 702 701 700 700 699 699 698 697 697 696 695 695 694 694 693 692 691 690 690 689 688 688 687 687 686 685 685 684 684 683 683 683 683 682
725 725 725 725 725 725 724 724 724 723 722 721 720 720 719 718 718 717 716 715 714 714 713 712 711 710 709 708 707 706 705 704 704 703 702 701 700 699 699 698 697 697 696 695 695 694 693 693 692 691 691 690 689 688 687 687 686 685 685 684 683 683 682 681 681 680 680 680 679
725 725 725 725 725 724 724 723 723 722 721 720 720 719 719 718 717 716 716 715 714 713 712 711 710 709 708 707 706 705 704 704 703 702 701 700 699 699 698 697 696 695 695 694 693 692 692 691 690 690 689 689 688 687 686 685 684 684 683 682 681 680 680 679 679 678 678 677 677
725 725 725 725 724 724 723 723 722 721 720 720 719 719 718 718 717 716 715 714 713 712 711 710 709 709 708 707 706 705 704 703 702 701 700 699 698 697 697 696 695 694 693 692 691 691 690 689 689 688 688 687 686 685 684 683 682 682 681 680 679 679 678 677 676 676 675 674 674
725 725 724 724 724 723 723 722 721 720 720 719 719 719 718 717 716 715 714 714 713 712 711 710 709 708 707 706 705 704 703 702 701 700 699 698 697 696 695 694 693 692 691 691 690 689 689 688 687 686 686 685 684 684 682 681 680 680 679 678 677 676 676 675 674 673 673 672 671
724 724 724 724 723 723 722 721 721 720 719 719 719 719 718 717 716 715 714 713 712 711 710 709 709 708 706 705 704 703 702 701 700 699 698 697 696 695 694 693 692 691 690 689 689 688 687 686 686 685 684 684 683 682 681 679 679 678 677 675 674 674 673 672 671 670 669 669 668
724 724 724 723 722 722 721 721 720 720 719 719 719 719 718 717 716 715 714 713 712 710 709 709 708 707 705 704 703 702 701 700 699 698 697 696 695 694 693 692 691 690 689 688 687 686 686 685 684 684 683 682 681 680 679 678 677 675 674 673 672 671 670 669 668 667 666 665 664
724 723 723 722 722 721 721 720 720 720 719 719 719 718 718 716 715 714 713 712 711 710 709 708 707 706 705 704 703 701 700 699 698 697 696 695 694 693 691 690 689 689 688 687 686 685 684 684 683 682 681 680 679 678 677 676 674 673 672 670 669 668 667 666 665 664 663 661 661
723 723 722 722 721 721 720 720 720 720 719 719 719 718 717 716 715 714 713 712 711 710 709 708 707 706 704 703 702 701 699 698 697 696 695 694 693 691 690 689 688 687 686 686 685 684 683 682 681 680 679 678 677 676 675 674 672 671 669 668 667 666 664 663 662 660 659 658 657
723 722 721 721 721 720 720 720 720 720 719 719 719 718 717 716 714 714 713 712 711 710 709 708 706 705 704 703 702 700 699 697 696 695 694 693 692 690 689 688 687 686 685 684 684 683 682 681 680 679 678 676 675 674 673 671 670 669 667 666 664 663 662 660 659 657 656 654 654
722 721 721 721 720 720 720 720 720 720 719 719 719 717 716 715 714 714 713 711 710 709 709 707 706 705 704 702 701 699 698 697 696 694 693 692 691 690 689 688 686 685 684 684 683 681 680 679 678 677 676 675 674 672 671 669 668 666 665 664 662 660 659 657 656 654 653 651 650
721 721 721 720 720 720 720 720 720 720 719 719 718 717 716 715 714 713 712 711 710 709 708 707 705 704 703 702 700 699 698 697 695 694 693 692 690 689 688 687 686 684 684 682 681 680 679 678 677 676 674 673 672 670 669 668 666 665 663 661 659 658 656 655 653 651 649 648 647
721 721 720 720 720 720 720 720 720 720 719 719 718 717 716 715 714 713 712 711 710 709 708 706 705 704 703 701 700 699 697 696 695 694 692 691 690 689 688 686 685 684 682 681 680 679 678 677 676 674 673 672 671 669 668 666 665 663 662 660 658 656 654 653 650 649 647 645 644
721 721 721 721 721 721 721 720 720 720 720 719 718 717 716 715 714 713 712 711 710 709 708 706 705 704 703 701 700 698 697 696 694 693 692 691 689 688 687 686 684 683 682 680 679 678 677 676 675 674 672 671 670 668 667 665 664 662 660 658 656 654 652 650 649 646 644 643 641
721 721 721 721 721 721 721 721 720 720 720 719 718 717 716 715 714 713 712 711 710 709 708 707 705 704 702 701 700 698 697 695 694 693 692 690 689 688 687 685 684 682 681 680 679 677 676 675 674 673 672 670 669 667 666 664 663 661 659 657 655 653 650 648 646 645 643 641 639
721 721 721 721 721 721 721 721 720 720 720 719 718 717 716 715 714 713 712 711 710 709 708 706 705 704 702 701 700 698 697 695 694 693 691 690 689 688 686 685 684 682 681 679 678 677 676 674 673 672 671 669 668 667 665 664 662 660 658 656 654 652 649 647 644 643 641 639 637